Location: *
(49.0044°N, 9.5056°E)
Time: 09:50:19
(UTC+00:00)

ADEOS Rocket - Pass Details

Date: 22 September 2019
Orbit: 859 x 1306 km, 98.7° (Epoch: 22 October)

Event Time Altitude Azimuth Distance (km) Brightness Sun altitude
Rises 20:28:18 0° 11° (N) 4,080 6.6 -29.2°
Reaches altitude 10° 20:30:57 10° 6° (N) 3,166 6.0 -29.6°
Maximum altitude 20:37:54 48° 296° (WNW) 1,620 4.4 -30.4°
Drops below altitude 10° 20:45:13 10° 225° (SW) 3,315 5.7 -31.3°
Sets 20:48:03 0° 220° (SW) 4,287 6.3 -31.6°
